Home   Weather   Lampasas   Past weeks
Flag for USA

Past Weather in Lampasas, Texas, USA — Yesterday and Last 2 Weeks

Now
67 °F

Sunny.


Feels Like: 67 °F
Forecast: 71 / 56 °F
Wind: 8 mph from Northeast

Location: Lampasas, Lampasas Airport

Current Time: Oct 16, 2019 at 3:31:08 pm

Latest Report: Oct 16, 2019 at 2:55 pm


Visibility: 10 mi

Pressure: 30.15 "Hg

Humidity: 31%

Dew Point: 35 °F

Location of LampasasLocation

Past Weather in Lampasas — Graph

°F

Lampasas Temperature Yesterday

Maximum temperature yesterday: 77 °F (at 4:55 pm)
Minimum temperature yesterday: 70 °F (at 11:55 pm)
Average temperature yesterday: 73 °F

High & Low Weather Summary for the Past Weeks

 TemperatureHumidityPressure
High95 °F (Oct 6, 4:15 pm)97% (Oct 13, 6:55 am)30.31 "Hg (Oct 13, 6:55 am)
Low41 °F (Oct 11, 9:55 am)17% (Oct 12, 3:55 pm)29.75 "Hg (Oct 10, 5:15 pm)
Average72 °F60%30.02 "Hg
* Reported Oct 1 2:15 pm — Oct 16 2:15 pm, Lampasas. Weather by CustomWeather, © 2019

Note: Actual official high and low records may vary slightly from our data, if they occured in-between our weather recording intervals... More about our weather records

Advertising

Lampasas Weather History for the Previous 24 Hours

Scroll right to see more
 ConditionsComfort  
Time TempWeatherWind HumidityBarometerVisibility
2:15 pm
Wed, Oct 16
67 °FSunny.10 mph30%30.16 "Hg10 mi
1:55 pm69 °FSunny.9 mph28%30.18 "Hg10 mi
1:35 pm68 °FSunny.10 mph28%30.19 "Hg10 mi
12:55 pm67 °FSunny.12 mph31%30.18 "Hg10 mi
12:35 pm66 °FSunny.14 mph32%30.19 "Hg10 mi
12:15 pm64 °FSunny.15 mph33%30.20 "Hg10 mi
11:55 am64 °FSunny.13 mph34%30.20 "Hg10 mi
11:35 am64 °FSunny.16 mph34%30.20 "Hg10 mi
11:15 am64 °FSunny.15 mph35%30.19 "Hg10 mi
10:55 am63 °FSunny.16 mph37%30.18 "Hg10 mi
10:35 am61 °FSunny.16 mph39%30.19 "Hg10 mi
10:15 am61 °FSunny.14 mph41%30.20 "Hg10 mi
9:55 am59 °FSunny.12 mph45%30.18 "Hg10 mi
9:35 am61 °FSunny.9 mph45%30.18 "Hg10 mi
9:15 am59 °FSunny.13 mph47%30.16 "Hg10 mi
8:55 am59 °FSunny.8 mph49%30.15 "Hg10 mi
8:35 am59 °FSunny.12 mph51%30.14 "Hg10 mi
8:15 am59 °FSunny.8 mph51%30.14 "Hg10 mi
7:55 am60 °FScattered clouds.12 mph52%30.12 "Hg10 mi
7:35 am60 °FPartly cloudy.8 mph52%30.12 "Hg10 mi
7:15 am61 °FPartly cloudy.9 mph53%30.11 "Hg10 mi
6:55 am61 °FPartly cloudy.7 mph53%30.10 "Hg10 mi
6:35 am62 °FPassing clouds.9 mph53%30.09 "Hg10 mi
6:15 am62 °FClear.12 mph53%30.09 "Hg10 mi
5:55 am63 °FPassing clouds.10 mph56%30.09 "Hg10 mi
5:35 am64 °FPassing clouds.10 mph54%30.07 "Hg10 mi
5:15 am64 °FOvercast.14 mph54%30.06 "Hg10 mi
4:55 am64 °FOvercast.9 mph60%30.06 "Hg10 mi
4:35 am65 °FOvercast.10 mph61%30.06 "Hg10 mi
4:15 am65 °FOvercast.10 mph65%30.04 "Hg10 mi
3:55 am66 °FOvercast.12 mph68%30.03 "Hg10 mi
3:35 am67 °FOvercast.12 mph78%30.01 "Hg10 mi
3:15 am67 °FOvercast.16 mph78%30.01 "Hg10 mi
2:55 am67 °FOvercast.10 mph79%30.02 "Hg10 mi
2:35 am68 °FOvercast.13 mph78%30.01 "Hg10 mi
2:15 am68 °FOvercast.12 mph78%30.01 "Hg10 mi
1:55 am67 °FPartly cloudy.10 mph79%30.01 "Hg10 mi
1:35 am68 °FPassing clouds.13 mph78%30.00 "Hg10 mi
12:55 am68 °FClear.6 mph75%29.99 "Hg10 mi
12:35 am69 °FClear.9 mph73%29.99 "Hg10 mi
12:15 am70 °FPassing clouds.9 mph70%29.99 "Hg10 mi
11:55 pm
Tue, Oct 15
70 °FClear.6 mph72%29.99 "Hg10 mi
10:35 pm72 °FMostly cloudy.No wind90%29.95 "Hg10 mi
10:15 pm72 °FPartly cloudy.No wind88%29.93 "Hg10 mi
9:35 pm73 °FPassing clouds.No wind86%29.91 "Hg10 mi
8:55 pm72 °FClear.3 mph91%29.89 "Hg10 mi
8:35 pm72 °FClear.No wind87%29.89 "Hg10 mi
8:15 pm71 °FClear.No wind92%29.89 "Hg10 mi
7:55 pm73 °FClear.No wind86%29.88 "Hg10 mi
7:15 pm74 °FClear.No wind82%29.87 "Hg10 mi
6:55 pm75 °FSunny.5 mph79%29.88 "Hg10 mi
6:35 pm77 °FSunny.7 mph78%29.87 "Hg10 mi
6:15 pm75 °FLight rain. Scattered clouds.3 mph89%29.85 "Hg10 mi
5:55 pm76 °FLight rain. Sunny.No wind87%29.85 "Hg10 mi
5:35 pm76 °FSunny.No wind87%29.86 "Hg10 mi
4:55 pm77 °FSunny.6 mph83%29.87 "Hg10 mi
4:35 pm76 °FSunny.No wind88%29.87 "Hg10 mi
3:55 pm76 °FSunny.3 mph87%29.88 "Hg10 mi
3:35 pm76 °FLight rain. Sunny.3 mph88%29.89 "Hg10 mi
3:15 pm75 °FSunny.No wind89%29.89 "Hg10 mi
Weather by CustomWeather, © 2019

See weather overview